Theta_e
309 309 310 311 310 309 308 308 308 307 306 306 306 305 305 305 305 299 298 302 300 296 297 300 302 298 300 302 294 298 300 301 302 303 301 301 300 301 302 301 300 297 296 293 295 292 292 309 308 303 305 305 309 309
308 309 309 310 309 308 307 308 308 307 307 307 306 305 305 304 305 301 295 306 308 301 296 301 303 304 303 305 299 300 299 300 303 300 300 304 303 301 299 296 304 299 301 299 298 297 304 308 307 310 309 309 309 308
308 309 309 309 308 308 307 306 307 307 307 307 306 305 305 304 305 300 294 298 302 297 295 295 296 301 305 306 308 300 302 304 301 304 303 304 304 304 298 299 301 304 308 302 302 303 307 311 312 311 313 312 313 313
308 309 310 309 307 306 306 307 307 307 307 307 306 306 305 304 304 302 292 295 295 294 290 292 302 298 305 307 307 307 306 306 306 306 303 303 303 307 301 302 302 305 307 303 304 307 309 310 314 312 313 314 313 312
308 309 309 308 306 306 305 306 307 307 307 306 306 306 305 304 305 299 295 294 295 294 287 290 297 298 299 304 305 306 306 303 303 302 303 304 307 305 303 302 300 307 305 304 302 307 308 308 315 316 314 313 312 311
308 308 307 306 306 306 306 307 307 307 307 306 306 306 305 305 302 293 291 297 295 299 294 286 294 296 298 298 300 305 306 304 303 303 303 306 310 306 300 298 305 308 311 310 308 314 314 316 318 317 314 313 314 311
308 307 306 305 303 302 305 306 306 306 306 305 306 306 306 304 295 289 290 298 300 297 293 287 286 293 298 297 300 303 305 306 304 302 303 304 304 307 303 300 308 310 313 314 316 315 312 316 313 316 315 314 313 311
305 304 304 303 304 305 306 306 306 305 306 306 306 306 305 303 296 289 291 301 299 299 298 289 285 290 300 296 294 302 302 304 304 302 303 303 306 304 301 307 309 313 315 315 317 318 316 319 314 313 314 314 311 309
304 304 305 304 305 306 306 306 306 306 306 306 306 304 296 291 286 288 301 304 301 298 292 289 284 285 299 297 296 298 301 298 306 301 300 302 300 300 306 306 308 312 313 314 318 319 319 318 314 314 313 311 310 308
305 305 304 304 305 305 306 306 306 306 306 305 295 287 283 289 299 304 295 290 289 290 292 286 289 288 296 296 297 295 298 298 295 299 306 299 298 306 308 308 311 314 315 317 313 313 314 313 311 312 311 311 311 309
304 305 306 306 306 305 305 306 306 305 301 291 287 290 294 304 296 291 286 285 285 284 287 288 288 287 294 295 295 298 296 300 293 296 299 297 297 304 308 308 311 314 316 318 318 318 318 316 311 310 310 311 310 309
305 305 305 305 306 306 305 305 305 295 291 292 295 298 297 292 288 285 283 286 285 284 288 287 289 290 291 298 298 298 297 296 292 299 297 293 300 304 306 308 310 313 317 319 319 317 315 314 312 311 310 309 309 308
305 305 305 305 306 305 305 305 302 302 300 296 295 292 289 287 278 281 280 281 282 287 289 292 292 291 292 296 295 296 292 292 300 296 295 297 303 306 307 308 311 315 317 318 319 319 317 313 312 311 309 309 309 309
304 304 305 305 305 306 306 305 304 300 295 290 289 284 285 282 283 282 283 284 291 293 293 295 295 291 290 289 294 292 297 296 291 291 293 300 302 304 308 310 311 312 314 316 318 317 314 312 311 311 310 310 310 308
302 304 304 305 305 305 305 305 304 297 292 288 289 281 283 286 287 288 288 286 289 293 292 293 296 297 291 289 292 293 293 292 292 293 296 299 301 302 305 308 310 312 313 315 317 315 312 311 310 309 310 310 310 309
303 303 300 304 304 304 304 302 299 296 292 290 287 284 286 285 287 288 288 288 291 291 291 292 289 288 289 292 292 292 292 289 292 296 298 300 299 301 304 307 311 313 314 314 316 314 311 310 309 309 309 310 310 309
300 294 303 304 304 303 302 297 296 292 289 288 284 288 288 287 287 288 289 290 293 291 286 288 286 285 292 291 291 295 291 293 296 297 300 301 300 302 305 309 313 314 314 316 315 313 310 310 310 309 307 308 309 309
294 299 304 303 301 300 297 296 294 290 286 288 283 286 288 289 289 289 291 292 292 290 289 286 290 287 288 287 287 292 295 297 299 300 300 300 303 306 308 310 313 314 315 315 314 311 310 310 309 309 308 309 308 308
298 301 303 302 299 295 292 292 293 287 286 285 285 286 287 288 288 290 292 292 293 294 292 289 287 285 288 294 294 296 297 297 296 298 299 304 306 307 309 311 314 314 311 311 311 311 311 312 310 310 310 310 308 308
302 302 302 302 301 294 290 290 294 289 285 285 285 284 285 286 287 289 291 292 291 290 289 288 288 289 291 296 300 299 298 298 298 297 298 302 306 308 309 310 313 313 310 311 311 305 310 309 310 311 312 309 309 308
299 300 301 299 296 295 293 290 287 287 285 284 286 285 284 284 284 285 287 291 289 288 287 290 291 293 295 297 298 300 299 298 299 299 299 300 305 308 309 312 316 311 310 310 310 308 307 309 310 310 310 311 311 311
298 301 296 297 292 292 291 294 288 286 284 284 284 285 283 282 283 284 288 289 288 290 291 292 293 295 294 294 296 299 299 300 301 302 298 300 304 307 310 312 314 313 311 312 313 313 311 311 311 312 312 310 309 310
298 297 293 292 288 288 284 292 287 286 283 283 283 282 282 284 286 289 286 288 289 292 294 294 296 295 295 297 297 297 299 298 298 300 303 306 309 311 312 313 316 315 312 313 316 314 311 302 304 312 311 311 310 308
299 293 288 287 287 283 288 285 288 287 284 283 282 282 282 284 287 285 283 284 287 289 289 291 293 293 293 294 295 296 297 300 301 303 306 308 308 310 312 314 317 318 317 317 315 312 311 312 305 312 311 310 310 310
286 287 288 284 287 284 284 285 285 284 283 283 283 283 284 287 284 283 284 286 287 289 290 291 290 291 290 292 294 294 297 300 301 303 306 310 310 310 311 316 319 317 318 314 312 312 311 312 312 311 311 311 310 310
282 286 284 283 284 284 284 283 283 283 283 283 284 285 285 284 283 282 285 288 290 293 296 296 297 296 294 294 293 295 296 304 307 305 308 311 311 309 309 310 315 314 318 317 314 311 311 312 311 311 311 305 298 310
281 283 284 288 287 287 284 285 285 283 283 282 283 282 282 281 281 285 289 293 294 296 299 301 301 299 300 300 301 302 303 308 309 310 312 312 312 312 311 311 315 317 318 317 315 314 313 312 312 312 310 310 311 311
284 285 283 286 285 285 283 283 283 282 283 285 285 282 282 282 282 289 293 296 297 297 297 298 299 301 302 303 303 306 307 309 311 311 311 311 313 314 316 320 319 297 318 318 316 315 315 313 312 311 310 310 310 311
284 286 286 283 284 283 283 283 283 285 287 286 284 283 285 288 291 292 294 295 296 296 296 296 298 302 302 304 305 308 308 308 306 305 304 304 311 314 319 318 312 316 315 312 296 308 313 312 312 312 311 310 310 309
285 287 284 284 283 282 284 286 285 287 287 288 288 288 288 290 293 294 294 294 293 294 296 297 299 301 301 302 302 308 311 311 311 309 307 308 312 315 314 313 314 314 314 313 306 300 293 304 302 309 308 308 306 304
287 286 285 284 283 285 287 288 289 289 288 288 289 288 288 289 291 292 293 294 295 295 295 297 298 301 302 302 303 306 308 313 314 314 315 317 318 316 314 312 313 313 312 310 310 310 308 309 309 308 307 306 303 303
284 285 284 283 284 287 288 287 286 286 286 287 287 288 288 288 288 293 294 294 294 295 294 295 298 299 304 305 308 311 298 314 315 317 318 317 316 315 313 312 312 313 312 312 311 310 310 309 308 307 305 304 304 304
283 284 284 282 283 285 286 287 286 285 286 285 287 289 289 288 287 293 294 296 297 297 298 299 301 303 305 308 312 314 303 317 311 297 293 294 300 304 311 312 313 313 312 311 311 310 309 308 307 306 306 305 304 304
Wind_Speed
18 17 17 25 28 26 24 22 19 17 16 14 12 9 6 3 1 2 2 2 1 1 4 3 3 1 3 1 1 4 3 3 4 4 1 2 3 1 2 2 1 2 4 2 2 4 1 3 4 8 7 4 3 2
17 16 16 23 28 28 24 23 20 17 15 14 12 9 6 3 2 3 0 1 1 2 5 2 5 7 7 6 2 3 2 3 2 1 3 1 0 2 3 1 3 1 4 5 6 6 4 4 4 4 4 4 2 2
16 17 18 26 27 26 24 20 20 18 16 14 12 10 7 4 3 4 1 2 1 2 4 2 6 4 4 10 8 2 1 2 3 2 2 3 1 2 3 3 2 1 3 2 4 3 5 5 5 5 3 3 4 4
12 17 21 25 28 27 24 21 19 17 16 14 12 9 7 5 3 4 1 0 2 2 2 5 2 5 1 4 9 9 4 5 3 1 3 3 2 1 3 3 2 4 2 4 3 6 5 3 2 4 3 4 8 6
7 16 25 28 27 25 23 23 19 18 16 15 12 10 7 5 4 3 0 2 2 2 2 5 8 4 6 6 10 10 6 3 2 3 2 3 1 2 2 1 4 5 6 4 5 4 2 4 6 2 4 1 4 13
6 28 29 29 27 24 21 19 19 17 16 14 12 10 8 5 5 3 2 2 3 1 2 4 4 4 5 3 6 9 4 2 2 2 4 3 1 3 3 3 6 2 1 3 2 1 3 7 6 2 4 5 3 8
21 26 30 28 27 24 20 19 17 15 15 13 11 9 7 7 2 3 4 3 4 2 0 4 5 5 3 1 2 3 5 2 2 3 3 3 2 2 2 3 3 2 4 5 5 2 4 0 4 1 7 7 9 10
27 28 27 26 25 22 20 18 17 16 13 11 10 8 6 4 3 3 3 7 4 0 1 2 5 5 2 1 1 2 3 3 1 3 4 2 1 1 4 10 2 3 5 4 6 7 4 3 2 6 5 11 12 9
27 25 24 22 20 20 18 18 16 15 13 11 10 8 3 3 1 4 3 9 3 2 2 1 2 3 3 1 1 1 2 2 1 3 4 2 1 5 9 2 5 3 2 2 3 6 3 4 5 4 4 7 12 7
24 24 24 22 19 17 17 16 16 16 14 13 4 3 1 4 5 8 5 3 4 2 1 3 1 3 1 1 1 1 2 4 4 6 2 3 5 7 14 6 7 7 4 6 3 2 1 2 6 5 5 4 8 9
22 22 21 21 20 18 17 16 16 16 8 2 2 2 2 5 2 2 2 2 1 2 3 4 5 2 2 1 1 2 2 3 3 4 6 4 4 6 11 12 7 9 8 8 9 6 7 8 10 8 7 8 7 10
19 19 18 18 17 16 17 18 16 4 4 6 2 3 2 2 3 2 2 0 3 5 3 4 4 4 3 1 2 1 2 3 4 1 3 2 2 8 12 14 11 9 7 7 7 7 7 7 8 8 8 9 8 9
16 17 17 16 16 15 16 18 8 5 4 1 3 2 3 1 3 4 5 3 2 3 3 3 2 3 1 1 2 1 1 5 2 3 5 0 5 10 12 13 13 12 8 5 5 4 2 5 8 9 10 7 11 11
15 15 15 15 15 14 15 14 6 4 4 3 2 4 2 2 3 4 4 4 3 1 2 2 3 2 1 1 0 0 3 3 3 3 3 5 12 16 15 13 11 12 12 8 7 7 6 7 8 9 10 11 13 11
13 13 13 12 13 13 11 10 5 3 2 3 0 2 3 3 4 4 4 2 3 1 2 3 2 1 1 1 2 2 2 4 1 3 3 7 13 14 16 17 16 12 9 9 5 7 7 8 9 8 9 10 11 12
13 13 3 12 12 13 12 7 3 2 2 2 1 1 2 1 4 2 1 3 1 3 2 3 3 1 2 1 2 4 3 2 2 4 8 10 11 14 15 15 15 14 11 8 6 5 7 10 13 12 10 11 11 13
9 2 10 14 14 16 10 4 2 2 1 0 2 2 3 4 4 3 1 2 1 2 2 3 3 4 1 2 3 3 3 3 6 9 7 10 11 14 15 15 14 16 14 8 8 8 8 8 13 13 13 6 10 9
2 5 17 16 12 6 2 2 1 2 3 3 1 3 2 3 3 3 2 1 1 2 2 2 3 1 2 2 1 3 6 6 5 7 7 8 10 12 12 14 15 16 15 8 10 9 10 13 13 8 12 11 11 9
3 8 20 18 8 4 3 1 1 2 3 2 3 3 3 3 3 3 2 1 1 1 4 2 2 2 3 3 3 3 4 3 5 6 8 10 8 11 14 14 14 13 5 6 9 7 8 10 11 11 9 10 9 7
7 21 20 15 7 1 3 2 1 3 3 4 2 2 3 3 2 2 1 0 1 2 1 2 4 4 4 4 4 4 5 3 2 7 9 7 5 9 12 12 10 7 1 4 5 8 9 8 8 10 10 11 11 8
6 12 17 7 2 2 1 3 3 4 2 3 2 4 3 1 2 2 1 2 2 2 3 4 4 5 5 5 4 6 7 4 7 5 9 9 7 8 10 9 9 2 1 4 6 6 9 8 9 9 11 9 9 9
4 11 3 3 2 3 2 3 2 1 2 2 1 2 1 1 2 4 3 2 3 5 5 4 5 6 6 6 7 6 7 7 8 8 9 6 6 8 7 7 7 1 3 3 4 6 8 8 9 10 11 10 10 9
9 4 2 2 2 3 5 3 3 3 2 3 2 2 2 2 4 2 2 3 4 5 7 7 9 8 10 10 6 8 7 6 7 7 7 6 6 8 8 7 7 3 3 3 6 6 8 9 8 10 11 11 10 9
6 3 3 4 4 4 2 2 2 2 1 2 3 3 3 4 1 1 3 4 5 3 4 7 5 6 4 5 6 9 7 5 7 5 5 5 6 7 5 7 6 4 4 5 7 8 9 10 11 11 11 12 11 11
5 6 4 5 4 3 4 4 4 2 3 3 3 2 3 2 2 3 4 5 2 3 4 4 4 4 7 7 5 8 7 5 6 6 6 6 5 6 7 7 6 6 8 9 10 11 9 10 10 12 12 12 13 13
5 6 9 8 6 5 6 5 6 6 4 4 5 3 1 2 3 5 4 4 3 4 4 3 3 3 4 6 6 6 5 4 4 5 7 5 5 5 7 9 5 5 5 8 12 13 13 11 12 15 12 11 12 13
5 6 5 4 3 3 2 1 2 3 5 6 3 4 3 4 5 5 3 3 4 4 4 3 4 4 6 6 5 7 5 5 7 4 3 5 7 8 8 10 11 7 8 11 13 16 16 15 14 13 12 10 12 13
5 3 6 5 3 3 4 5 6 7 5 4 4 5 6 6 6 4 6 4 5 4 4 5 5 5 5 6 5 5 4 3 3 4 7 9 12 11 11 9 4 11 9 11 13 13 14 14 13 13 14 12 9 9
3 3 4 4 3 3 5 7 6 4 4 5 5 4 5 5 4 4 4 4 2 2 4 6 7 2 4 4 4 3 5 5 4 10 12 11 6 3 1 6 8 9 9 10 10 14 18 15 14 13 14 12 11 10
4 4 3 5 5 6 5 6 4 4 4 4 3 1 2 3 5 3 3 3 3 5 6 6 5 4 7 5 6 5 5 4 6 8 7 7 4 3 4 8 10 10 11 12 11 11 13 14 13 12 12 11 11 11
3 4 2 4 4 5 6 4 1 0 1 3 4 4 5 5 5 4 6 5 5 4 5 7 7 5 6 7 4 5 6 4 10 12 11 7 3 3 6 5 8 10 12 14 14 14 14 15 13 15 15 15 15 14
3 5 4 4 4 3 1 4 4 4 3 3 4 3 3 2 8 8 5 5 5 8 10 8 8 9 7 6 4 6 9 6 8 10 10 4 4 5 7 8 9 10 14 15 14 16 18 17 14 15 16 19 17 17
2 2 2 1 2 2 1 2 2 3 3 4 5 6 7 7 12 8 3 5 7 9 8 8 8 7 7 7 5 4 7 6 8 9 2 3 7 8 8 9 10 11 16 15 15 16 19 21 17 18 19 18 17 17
Wind_Direction
230 225 216 201 181 175 174 178 180 184 187 191 193 197 192 176 65 103 268 253 132 275 278 253 301 12 342 128 16 309 337 319 342 55 71 155 268 120 62 67 262 150 123 153 94 83 210 166 80 155 217 282 287 240
227 223 211 195 176 169 168 174 176 178 182 187 190 190 183 172 104 112 13 3 212 225 250 264 246 241 228 254 55 311 281 293 286 337 5 262 114 324 116 209 352 349 178 171 164 218 283 277 230 258 201 207 229 220
227 216 204 178 164 161 161 167 176 176 176 179 181 182 179 170 133 119 181 309 45 301 300 339 261 291 195 224 220 226 299 317 4 204 270 271 90 217 118 239 237 226 181 109 50 257 252 279 285 262 275 233 125 116
229 206 179 168 156 154 162 165 169 171 174 176 174 174 176 170 160 128 120 293 94 229 287 284 309 299 319 178 191 214 311 327 271 310 242 259 199 201 168 228 229 199 162 141 271 285 284 280 308 315 14 56 97 70
231 187 164 151 148 150 158 172 170 170 167 166 170 169 172 173 152 107 128 235 236 147 239 279 306 277 287 182 183 208 225 260 310 312 271 246 142 52 343 20 267 186 178 143 212 250 169 267 321 332 117 139 142 119
210 153 151 147 149 152 154 157 153 152 160 164 165 165 167 167 120 74 37 310 215 149 312 312 289 298 327 176 189 189 171 210 215 259 270 294 190 156 180 229 258 214 193 160 246 355 248 281 292 273 120 125 111 94
152 145 140 137 138 146 163 150 147 152 160 162 161 161 155 146 109 161 188 177 137 113 10 304 322 282 296 132 145 132 149 217 201 252 246 246 278 136 143 229 237 130 212 232 224 241 308 317 317 13 121 107 98 87
128 129 129 139 152 156 143 145 152 156 153 149 143 139 138 117 30 335 258 229 148 90 353 296 276 334 25 147 193 165 142 136 267 261 311 242 359 109 248 253 302 317 300 229 223 209 225 313 30 74 133 129 103 110
122 128 128 128 132 136 143 148 148 145 139 139 133 114 75 52 51 247 291 99 65 74 318 308 254 262 357 72 255 345 140 110 130 275 244 90 274 228 233 274 277 272 63 248 224 236 257 267 136 148 170 109 112 124
132 134 140 147 142 142 145 142 142 140 136 120 73 78 15 228 231 129 25 48 24 352 116 236 282 267 334 37 162 116 195 178 186 221 136 187 253 266 274 241 252 273 249 223 117 343 163 208 116 154 243 124 133 140
136 137 137 138 141 144 145 143 140 126 88 73 118 152 223 144 85 40 93 119 189 248 211 229 201 238 297 303 296 209 223 203 201 243 164 204 273 254 268 266 240 249 246 192 221 210 212 152 167 160 147 125 130 132
127 129 133 136 141 143 143 140 134 92 169 182 156 106 84 68 53 125 187 248 194 230 207 185 209 195 275 293 257 318 283 357 228 114 138 243 264 336 344 330 333 274 245 227 207 188 188 176 154 146 137 136 136 117
132 134 137 140 137 139 144 146 117 114 121 62 55 86 87 262 61 195 187 237 244 217 200 172 168 183 340 335 241 254 226 232 338 209 197 179 332 332 331 325 327 328 287 242 202 225 188 142 131 136 128 118 123 119
127 133 134 140 141 142 154 156 109 39 75 80 124 139 226 184 242 197 198 206 237 171 168 190 126 143 197 91 47 5 279 2 289 211 149 13 344 329 327 323 326 332 323 270 208 186 167 157 133 119 129 138 128 134
147 139 136 139 143 146 146 152 112 40 80 85 121 186 225 247 260 241 222 267 260 179 128 72 35 67 31 49 208 283 249 245 350 27 342 326 322 320 322 325 322 323 320 304 187 164 155 142 133 122 128 126 122 126
130 123 85 148 149 138 126 103 44 47 60 74 107 315 270 342 306 322 288 264 164 133 74 55 111 145 177 190 270 227 258 57 28 316 301 307 314 313 312 312 307 310 298 274 238 158 147 167 144 136 126 131 133 135
131 136 163 147 141 124 94 70 46 1 350 160 277 239 233 242 233 274 251 267 183 92 131 119 135 189 141 181 238 25 26 319 286 285 289 296 300 306 307 307 302 309 299 272 194 169 152 127 124 128 132 130 128 128
106 154 147 143 119 89 49 57 140 160 226 217 241 265 220 244 290 305 287 312 93 107 120 152 127 117 208 189 190 242 245 251 247 257 273 288 295 301 305 307 305 304 291 243 165 146 141 142 138 139 128 129 108 111
141 152 138 127 103 104 138 130 96 212 246 190 249 248 259 263 252 266 273 2 57 122 107 66 118 202 234 218 232 228 262 255 291 308 300 291 284 305 306 308 306 312 276 149 147 153 150 153 139 134 133 133 126 131
174 143 136 128 79 96 139 109 234 231 231 226 203 212 214 230 270 142 129 74 67 78 85 192 212 217 197 221 229 235 245 262 277 293 293 292 307 307 307 308 307 305 193 98 95 117 117 115 117 128 139 131 134 138
79 147 135 86 69 324 274 148 206 224 239 204 209 170 233 324 262 261 247 155 91 207 237 226 233 248 232 237 237 260 270 241 259 247 278 300 308 305 297 302 314 280 222 141 138 140 125 136 135 135 133 129 130 134
95 95 85 77 140 201 264 193 217 238 175 243 219 160 174 221 243 226 146 139 212 227 203 213 236 250 265 256 249 231 241 248 250 257 267 268 276 291 296 302 309 289 162 140 150 152 124 130 137 133 125 125 123 125
89 86 101 130 172 200 255 135 188 198 192 241 99 173 254 234 232 112 226 210 234 224 217 222 241 235 238 261 266 264 242 236 265 262 259 251 255 273 282 288 289 186 163 145 129 134 120 129 121 126 126 120 123 123
120 120 140 177 185 198 213 220 241 209 220 162 159 192 219 219 134 149 240 240 237 237 206 232 235 261 285 261 256 262 261 197 237 250 233 252 270 274 279 280 274 178 157 146 131 125 141 135 130 131 127 128 134 138
142 181 202 183 185 191 214 184 200 190 219 193 195 265 253 143 200 231 229 255 253 254 263 255 245 221 235 252 251 253 244 202 230 238 244 222 260 285 296 286 222 170 156 149 142 138 139 139 129 130 137 138 142 145
192 182 189 187 172 188 199 169 189 195 168 173 226 235 125 176 202 246 234 220 220 232 237 234 244 269 255 224 255 271 264 206 186 229 255 226 225 262 285 291 194 196 188 148 134 135 144 137 134 140 139 138 135 140
173 199 209 219 184 168 185 133 120 138 182 204 205 178 191 230 233 243 264 225 217 235 226 235 232 240 256 275 248 245 238 187 201 229 271 265 260 255 251 259 201 176 169 148 151 151 147 141 143 145 145 147 151 147
229 205 182 178 201 204 170 168 173 194 209 213 128 183 192 205 230 232 213 228 220 255 264 264 238 228 243 262 264 266 239 217 243 291 290 285 272 257 217 212 186 151 149 153 146 148 143 140 143 145 146 145 137 146
227 225 140 169 190 196 210 189 210 225 197 154 176 217 237 224 223 221 242 219 194 225 283 296 299 242 270 260 285 239 220 205 208 253 269 279 283 298 208 148 148 152 142 137 137 138 139 140 144 145 144 138 134 132
240 162 173 169 174 215 233 183 211 217 195 192 180 289 285 264 244 217 233 261 266 260 258 259 261 278 285 292 298 270 224 211 233 241 258 272 235 230 179 159 150 142 141 130 115 104 105 109 107 115 122 126 125 125
164 163 174 166 223 226 214 212 239 174 220 221 209 207 239 257 278 231 214 224 224 235 256 270 269 242 249 267 243 284 289 241 249 251 246 256 259 188 154 129 133 135 131 129 133 131 133 132 135 138 138 136 135 131
163 190 179 204 258 272 111 178 212 215 243 228 255 222 293 278 265 278 212 170 207 239 242 239 244 261 241 244 234 229 236 258 265 259 259 234 174 160 138 125 129 138 136 137 135 138 138 138 143 142 139 137 138 135
156 170 165 159 321 269 243 149 223 264 236 239 245 228 232 234 254 260 224 186 198 218 224 223 229 234 234 235 242 249 250 235 220 263 254 132 149 160 139 134 136 139 135 135 140 139 138 139 139 140 138 139 138 138